Weather History for St. Petersburg, FL

Change the Weather History Date:

Friday, January 13, 2012

  Actual Average Record
Temperature  
Mean Temperature 59 °F -  
Max Temperature 66 °F 68 °F 82 °F (2005)
Min Temperature 52 °F 52 °F 31 °F (1981)
Degree Days  
Heating Degree Days 6    
Growing Degree Days 9 (Base 50)    
Moisture  
Dew Point 46 °F    
Average Humidity 67    
Maximum Humidity 81    
Minimum Humidity 56    
Precipitation  
Precipitation 0.00 in - - ()
Sea Level Pressure  
Sea Level Pressure 30.13 in    
Wind  
Wind Speed 10 mph (North)    
Max Wind Speed 14 mph    
Max Gust Speed 23 mph    
Visibility 10 miles    
Events      
Averages and records for this station are not official NWS values.
T = Trace of Precipitation, MM = Missing Value Source: NWS Daily Summary

Daily Weather History Graph

Daily Weather History Graph

Search for Another Location

Airport:

Trip Planner

Search our weather history database for the weather conditions in past years. The results will help you decide how hot, cold, wet, or windy it might be!

Date:

Astronomy

Jan. 13, 2012 Rise Set
Actual Time 7:22 AM EST 5:55 PM EST
Civil Twilight 6:57 AM EST 6:20 PM EST
Nautical Twilight 6:28 AM EST 6:49 PM EST
Astronomical Twilight 6:00 AM EST 7:17 PM EST
Moon 10:35 PM EST (1/13) 10:04 AM EST (1/13)
Length of Visible Light 11h 23m
Length of Day
10h 32m
Waning Gibbous, 79% of the Moon is Illuminated
Jan 13
Waning Gibbous
Jan 16
Last Quarter
Jan 23
New
Jan 30
First Quarter
Feb 7
Full

Hourly Weather History & Observations

Time (EST) Temp. Dew Point Humidity Pressure Visibility Wind Dir Wind Speed Gust Speed Precip Events Conditions
12:53 AM 66.0 °F 60.1 °F 81% 29.98 in 10.0 mi NNW 11.5 mph 23.0 mph N/A   Mostly Cloudy
1:53 AM 64.0 °F 57.9 °F 80% 29.99 in 10.0 mi NNW 9.2 mph - N/A   Clear
2:53 AM 64.0 °F 55.0 °F 73% 30.01 in 10.0 mi NW 11.5 mph - N/A   Scattered Clouds
3:05 AM 62.6 °F 55.4 °F 77% 30.01 in 10.0 mi NNW 12.7 mph - N/A   Mostly Cloudy
3:53 AM 61.0 °F 52.0 °F 72% 30.02 in 10.0 mi North 13.8 mph 19.6 mph N/A   Scattered Clouds
4:53 AM 59.0 °F 48.9 °F 69% 30.05 in 10.0 mi North 12.7 mph 19.6 mph N/A   Clear
5:53 AM 57.9 °F 48.0 °F 70% 30.09 in 10.0 mi North 11.5 mph 18.4 mph N/A   Clear
6:53 AM 55.9 °F 41.0 °F 57% 30.12 in 10.0 mi North 10.4 mph - N/A   Clear
7:53 AM 55.9 °F 43.0 °F 62% 30.13 in 10.0 mi North 6.9 mph - N/A   Clear
8:53 AM 57.0 °F 43.0 °F 59% 30.15 in 10.0 mi North 11.5 mph - N/A   Clear
9:53 AM 55.9 °F 43.0 °F 62% 30.17 in 10.0 mi North 11.5 mph - N/A   Clear
10:53 AM 57.0 °F 45.0 °F 64% 30.18 in 10.0 mi NE 9.2 mph - N/A   Clear
11:53 AM 57.0 °F 43.0 °F 59% 30.17 in 10.0 mi North 6.9 mph - N/A   Clear
12:53 PM 57.9 °F 43.0 °F 58% 30.15 in 10.0 mi NE 9.2 mph - N/A   Clear
1:53 PM 57.9 °F 42.1 °F 56% 30.14 in 10.0 mi NNE 12.7 mph 17.3 mph N/A   Clear
2:53 PM 57.0 °F 42.1 °F 57% 30.15 in 10.0 mi NNE 9.2 mph - N/A   Clear
3:53 PM 55.0 °F 41.0 °F 59% 30.15 in 10.0 mi NNE 8.1 mph - N/A   Clear
4:53 PM 54.0 °F 42.1 °F 64% 30.17 in 10.0 mi North 8.1 mph - N/A   Clear
5:53 PM 53.1 °F 43.0 °F 69% 30.17 in 10.0 mi North 9.2 mph - N/A   Clear
6:53 PM 52.0 °F 43.0 °F 71% 30.19 in 10.0 mi North 8.1 mph - N/A   Clear
7:53 PM 52.0 °F 43.0 °F 71% 30.20 in 10.0 mi North 8.1 mph - N/A   Clear
8:53 PM 52.0 °F 43.0 °F 71% 30.22 in 10.0 mi North 5.8 mph - N/A   Clear
9:53 PM 52.0 °F 43.0 °F 71% 30.25 in 10.0 mi NNW 4.6 mph - N/A   Clear
10:53 PM 53.1 °F 42.1 °F 66% 30.24 in 10.0 mi NNW 5.8 mph - N/A   Clear
11:53 PM 54.0 °F 45.0 °F 72% 30.24 in 10.0 mi North 3.5 mph - N/A   Clear